Location: Unspecified
(0.0000°N, 0.0000°E)
Time: 04:56:49
(UTC+00:00)

Vanguard 1 - Pass Details

Date: 08 December 2017
Orbit: 649 x 3834 km, 34.3° (Epoch: 16 January)

Event Time Altitude Azimuth Distance (km) Brightness Sun altitude
Rises 01:45:43 0° 214° (SSW) 5,371 13.9 -54.2°
Reaches altitude 10° 01:52:17 10° 188° (S) 5,099 13.9 -52.9°
Maximum altitude 01:58:59 14° 162° (SSE) 5,429 14.1 -51.6°
Drops below altitude 10° 02:07:05 10° 137° (SE) 6,337 14.6 -50.0°
Sets 02:17:55 0° 114° (ESE) 7,858 15.3 -47.8°
